Location: LDNL
(36.4545°S, 141.6685°E)
Time: 13:31:51
(UTC+11:00)

Courier 1B Rocket - Pass Details

Date: 08 February 2023
Orbit: 920 x 1202 km, 28.2° (Epoch: 25 March)

Event Time Altitude Azimuth Distance (km) Brightness Sun altitude
Rises 10:35:08 0° 279° (W) 4,105 7.8 42.4°
Reaches altitude 10° 10:40:03 10° 305° (NW) 3,118 7.5 43.3°
Maximum altitude 10:43:07 13° 329° (NNW) 2,889 7.5 43.9°
Drops below altitude 10° 10:46:10 10° 353° (N) 3,063 7.8 44.5°
Sets 10:50:55 0° 19° (NNE) 3,962 8.5 45.4°
